STARLINK-1888, 47171

Orbit data source: Space-Track

STARLINK-1888, 47171 is a payload satellite owned by SpaceX/Seattle (US) in LEO that was launched on Wed, 25 Nov 2020 UTC via an FALCON 9 launch vehicle from the Air Force Eastern Test Range (AFETR). Payload-class satellites include a variety of spacecraft equipped with specific instruments for various scientific and technological missions. These include communications satellites like Starlink; space stations such as the ISS; scientific satellites like the Hubble; Earth observation satellites from companies like Planet Labs, Umbra, and HawkEye 360; GPS; miniature CubeSats for education and research; and military/defense satellites.

Loading next visibility...
Identifier
47171, 2020-088BB
Orbit
LEO
Country
Flag of USUS
Related business
Manufacturer
SpaceX/Seattle
Mission
Partially operational Commercial Communications
Bus & Motor
STARLINK, Unknown motor
Mass
260 kg wet, ~248 kg dry
Launch date (UTC)
2020-11-25 (6 years ago)
Launch vehicle
FALCON 9
Launch site
Air Force Eastern Test Range (AFETR)
Object type
Payload
Rocket body
Debris
Shape & HBR
Box + 1 Pan, 10.1 m
Radar Cross Section
13.562 m², Large (>1 m²)

Expand to show TLE details & history
Last TLE update: 2 days ago

TLE from 2 days ago
0 STARLINK-1888
1 47171U 20088BB  26171.50003471  .00052680  00000-0  40173-3 0  9994
2 47171  53.0440 139.2922 0001625  79.2203 168.9666 15.71720788  5994
Epoch: 2026-06-20T12:00Z
TLE epoch observation values (Epoch: 2026-06-20T12:00:02.998Z)
Latitude
-48.07578°
Longitude
-73.01531°
Altitude
371.504 km
Speed
7.686 km/s
True Right ascension
01h 02m 50s
True Declination
-47° 53' 42"
Sunlit
Object was in daylight at epoch
Visualization orbit readout
Latitude
Unknown
Longitude
Unknown
Altitude
Unknown
Speed
Unknown
Apparent Right ascension
Unknown
Apparent Declination
Unknown
Sunlit
N/A
Visualization observer readout
Local Sidereal Time
00:39:33
Azimuth
Unknown
Elevation
Unknown
Doppler factor
Unknown
Orbital elements
Apogee altitude
355.353 km
Perigee altitude
353.165 km
Semi-major axis
6,732.396 km
Eccentricity
0.00016
Inclination
53.044°
RAAN
139.2922°
Arg. of periapsis
79.2203°
True anomaly
168.97016°
Mean anomaly
168.9666°
Eccentric anomaly
168.96838°
Mean motion
3.92906 °/min
Orbital period
91.62 mins
BSTAR
0.00040173
Loading maneuver chart data...
Computing Atmospheric mass density...

Documentation

Showing up to 5 results
|